Location: Noordwijk
(52.2400°N, 4.4500°E)
Time: 22:23:02
(UTC+00:00)

FO-29 - Pass Details

Date: 06 December 2022
Orbit: 799 x 1322 km, 98.5° (Epoch: 01 February)

Event Time Altitude Azimuth Distance (km) Brightness Sun altitude
Rises 05:20:48 0° 16° (NNE) 3,929 12.7 -19.4°
Reaches altitude 10° 05:23:35 10° 22° (NNE) 2,888 12.1 -19.0°
Maximum altitude 05:29:52 52° 98° (E) 1,184 10.3 -18.1°
Drops below altitude 10° 05:35:24 10° 174° (S) 2,547 11.9 -17.3°
Sets 05:37:43 0° 180° (S) 3,429 12.6 -16.9°
